This is the latest recevied weather packets stored in our database for station/object N4NVD-13. If no packets are shown the sender has not sent any weather packets the latest 10 day(s).
| Time | Temp. | Humidity | Pressure | Rain* | Wind** | Luminosity | Snow |
|---|---|---|---|---|---|---|---|
| 1777388357 | 27.22° C | 89% | 1012.2 hPa | 0 mm | - | 301 W/m² | - |
| 1777388057 | 26.67° C | 89% | 1011.9 hPa | 0 mm | - | 246 W/m² | - |
| 1777387754 | 26.67° C | 90% | 1012.3 hPa | 0 mm | - | 423 W/m² | - |
| 1777387450 | 26.67° C | 91% | 1012.1 hPa | 0 mm | - | 358 W/m² | - |
| 1777387145 | 26.11° C | 91% | 1012 hPa | 0 mm | - | 351 W/m² | - |
| 1777386841 | 26.11° C | 92% | 1012.3 hPa | 0 mm | - | 193 W/m² | - |
| 1777386537 | 26.11° C | 92% | 1011.8 hPa | 0 mm | - | 198 W/m² | - |
| 1777386235 | 26.11° C | 93% | 1011.7 hPa | 0 mm | - | 159 W/m² | - |
| 1777385932 | 26.11° C | 93% | 1012 hPa | 0 mm | - | 175 W/m² | - |
| 1777385629 | 26.11° C | 93% | 1011.9 hPa | 0 mm | - | 210 W/m² | - |
| 1777385326 | 26.11° C | 93% | 1012.1 hPa | 0 mm | - | 218 W/m² | - |
| 1777385022 | 25.56° C | 94% | 1012 hPa | 0 mm | - | 196 W/m² | - |
| 1777384719 | 25.56° C | 95% | 1012 hPa | 0 mm | - | 160 W/m² | - |
| 1777384418 | 25.56° C | 95% | 1012 hPa | 0 mm | - | 188 W/m² | - |
| 1777384115 | 25° C | 96% | 1011.9 hPa | 0 mm | - | 126 W/m² | - |
| 1777383811 | 25° C | 96% | 1011.8 hPa | 0 mm | - | 87 W/m² | - |
| 1777383507 | 25° C | 97% | 1011.7 hPa | 0 mm | - | 69 W/m² | - |
| 1777383204 | 25° C | 96% | 1011.8 hPa | 0 mm | - | 61 W/m² | - |
| 1777382901 | 25° C | 97% | 1012.1 hPa | 0 mm | - | 55 W/m² | - |
| 1777382596 | 25° C | 97% | 1011.8 hPa | 0 mm | - | 50 W/m² | - |
| 1777382292 | 25° C | 97% | 1011.7 hPa | 0 mm | - | 45 W/m² | - |
| 1777381989 | 25° C | 97% | 1011.7 hPa | 0 mm | - | 48 W/m² | - |
| 1777381683 | 25° C | 97% | 1011.8 hPa | 0 mm | - | 38 W/m² | - |
| 1777381379 | 25° C | 97% | 1011.9 hPa | 0 mm | - | 49 W/m² | - |
| 1777381076 | 24.44° C | 98% | 1011.8 hPa | 0 mm | - | 60 W/m² | - |
* Rain latest hour (hover to see other rain measurements)
** Current wind speed in m/s (hover to see current wind gust speed)